Погода в Бомнаке

Россия / Амурская область     54°42′36″N   128°51′01″E
темп.,
°C
ветер,
м/с
пор.,
м/с
влажн.,
%
обл.,
%
осадки,
мм/ч
давл.,
гПа
погр.,
м
13 мая, чт
чт1300:00+8св2381100 0.1 100486
03:00+6в4878100 0.3 1004465
06:00+6всв487998 0.3 1004381
09:00+10в61056100 0.3 1003950
12:00+12вюв6850100 0.0 10021502
15:00+11вюв5661100 0.0 10031107
18:00+9всв2470100 0.4 1004809
21:00+7ссв2389100 0.8 1005135
14 мая, пт
пт1400:00+7всв3686100 0.1 1006344
03:00+6в3595100 0.3 1007235
06:00+5в4795100 1.5 1008313
09:00+5в4894100 3.8 1008339
12:00+6всв3791100 0.8 1008376
15:00+9в4679100 1.4 1005815
18:00+7вюв3886100 0.9 1004689
21:00+6в4993100 2.6 10031053
15 мая, сб
сб1500:00+5всв51094100 2.6 10011055
03:00+5св51094100 8.6 998937
06:00+5всв4996100 4.7 996925
09:00+5всв2895100 8.7 997767
12:00+6юз1193100 1.8 997327
15:00+6юз2293100 4.2 998252
18:00+6з2493100 0.6 999201
21:00+6с41082100 0.6 1000304
16 мая, вс
вс1600:00+5с4128251 0.0 1002325
03:00+3ссз269230 0.0 1002127
06:00+5ссз26875 0.0 1002169
09:00+11зюз11605 0.0 1002798
12:00+15ююз22447 0.0 10001624
15:00+15ююз324633 0.0 9991168
18:00+15зюз22447 0.0 999940
21:00+9ююв116592 0.0 100010
17 мая, пн
пн1700:00+6в258828 0.5 100094
03:00+6вюв4894100 0.7 1000234
06:00+6в3592100 0.1 999260
09:00+8ююв2387100 1.7 998512
12:00+12зюз466127 0.3 9971430
15:00+14ссз473768 0.4 9952093
18:00+12зсз254367 0.1 996951
21:00+6с225528 0.1 99826